This is the latest recevied weather packets stored in our database for station/object WX2NJ. If no packets are shown the sender has not sent any weather packets the latest 10 day(s).
| Time | Temp. | Humidity | Pressure | Rain* | Wind** | Luminosity | Snow |
|---|---|---|---|---|---|---|---|
| 1777738901 | 15° C | 62% | 1015.7 hPa | 0 mm | - | 111 W/m² | - |
| 1777738599 | 15° C | 62% | 1015.8 hPa | 0 mm | - | 131 W/m² | - |
| 1777738295 | 15° C | 63% | 1015.6 hPa | 0 mm | - | 132 W/m² | - |
| 1777737993 | 15.56° C | 61% | 1015.5 hPa | 0 mm | - | 164 W/m² | - |
| 1777737692 | 15° C | 61% | 1015.6 hPa | 0 mm | - | 240 W/m² | - |
| 1777736154 | 15° C | 62% | 1015.4 hPa | 0 mm | - | 139 W/m² | - |
| 1777735851 | 15° C | 61% | 1015.2 hPa | 0 mm | - | 152 W/m² | - |
| 1777735549 | 15° C | 63% | 1015.4 hPa | 0 mm | - | 135 W/m² | - |
| 1777735246 | 15° C | 62% | 1015.3 hPa | 0 mm | - | 165 W/m² | - |
| 1777734943 | 15° C | 60% | 1015.4 hPa | 0 mm | - | 177 W/m² | - |
| 1777734640 | 15° C | 60% | 1015.2 hPa | 0 mm | - | 219 W/m² | - |
| 1777734338 | 15° C | 62% | 1015.4 hPa | 0 mm | - | 197 W/m² | - |
| 1777734034 | 15° C | 62% | 1015.3 hPa | 0 mm | - | 180 W/m² | - |
| 1777733730 | 15° C | 60% | 1015.3 hPa | 0 mm | - | 180 W/m² | - |
| 1777733427 | 15° C | 61% | 1015.6 hPa | 0 mm | - | 177 W/m² | - |
| 1777733123 | 15° C | 60% | 1015.4 hPa | 0 mm | - | 180 W/m² | - |
| 1777732820 | 15° C | 61% | 1015.5 hPa | 0 mm | - | 210 W/m² | - |
| 1777732516 | 14.44° C | 61% | 1015.6 hPa | 0 mm | - | 177 W/m² | - |
| 1777732215 | 14.44° C | 62% | 1015.7 hPa | 0 mm | - | 159 W/m² | - |
| 1777731911 | 15° C | 64% | 1015.5 hPa | 0 mm | - | 158 W/m² | - |
| 1777731608 | 15° C | 62% | 1015.7 hPa | 0 mm | - | 171 W/m² | - |
| 1777731306 | 14.44° C | 63% | 1015.8 hPa | 0 mm | - | 180 W/m² | - |
| 1777731003 | 15° C | 64% | 1015.4 hPa | 0 mm | - | 181 W/m² | - |
| 1777730702 | 15° C | 64% | 1015.5 hPa | 0 mm | - | 175 W/m² | - |
| 1777730397 | 14.44° C | 65% | 1015.6 hPa | 0 mm | - | 171 W/m² | - |
* Rain latest hour (hover to see other rain measurements)
** Current wind speed in m/s (hover to see current wind gust speed)